Location: Chmeln�
(49.6483°N, 14.9871°E)
Time: 08:00:59
(UTC+00:00)

Spot 2 Rocket - Pass Details

Date: 18 September 2020
Orbit: 758 x 771 km, 98.6° (Epoch: 24 October)

Event Time Altitude Azimuth Distance (km) Brightness Sun altitude
Exits shadow 19:48:07 67° 65° (ENE) 826 3.4 -25.3°
Drops below altitude 10° 19:53:04 10° 350° (N) 2,300 6.6 -25.9°
Sets 19:55:23 0° 348° (NNW) 3,230 7.5 -26.2°
